User: anonymous   Login
Location: Unspecified
(0.0000°N, 0.0000°E)
Time: 23:58:07
(UTC+00:00)
Language:

STARLINK-1608 - Orbit

View from above orbital plane
View from above orbital plane
View from above satellite
View from above satellite

Ground track
Ground track

The orbit is defined by the following mean orbital elements,

1 46146U          26145.44181178 +.00000000 +00000-0 +13541-2 0 00002
2 46146  53.1598 311.9587 0001679 280.1942  79.8871 15.34553686    03
Epoch (UTC): 25 May 2026 10:36:12
Eccentricity: 0.0001679
inclination: 53.1598°
perigee height: 461 km
apogee height: 463 km
right ascension of ascending node: 311.9587°
argument of perigee: 280.1942°
revolutions per day: 15.34553686
mean anomaly at epoch: 79.8871°

The dashed part of the orbit path shows where the satellite is in the earth's shadow,  

DLR